This is the latest recevied weather packets stored in our database for station/object OK1CBR-13. If no packets are shown the sender has not sent any weather packets the latest 10 day(s).
| Time | Temp. | Humidity | Pressure | Rain* | Wind** | Luminosity | Snow |
|---|---|---|---|---|---|---|---|
| 1777790853 | 14.44° C | 55% | 1019.2 hPa | - | - | - | - |
| 1777790253 | 13.33° C | 57% | 1019.2 hPa | - | - | - | - |
| 1777789653 | 12.78° C | 59% | 1019.3 hPa | - | - | - | - |
| 1777789053 | 12.78° C | 61% | 1019.2 hPa | - | - | - | - |
| 1777788453 | 12.22° C | 62% | 1019.3 hPa | - | - | - | - |
| 1777787853 | 11.11° C | 64% | 1019.1 hPa | - | - | - | - |
| 1777787253 | 10.56° C | 65% | 1019.2 hPa | - | - | - | - |
| 1777786653 | 10.56° C | 67% | 1019.1 hPa | - | - | - | - |
| 1777786053 | 10° C | 67% | 1019.2 hPa | - | - | - | - |
| 1777785453 | 9.44° C | 68% | 1019 hPa | - | - | - | - |
| 1777784853 | 8.89° C | 70% | 1019 hPa | - | - | - | - |
| 1777784253 | 8.89° C | 70% | 1019 hPa | - | - | - | - |
| 1777783653 | 8.33° C | 71% | 1019 hPa | - | - | - | - |
| 1777783053 | 8.33° C | 72% | 1019 hPa | - | - | - | - |
| 1777782453 | 8.33° C | 71% | 1019 hPa | - | - | - | - |
| 1777781853 | 8.33° C | 71% | 1018.8 hPa | - | - | - | - |
| 1777781253 | 7.78° C | 72% | 1018.8 hPa | - | - | - | - |
| 1777780656 | 7.78° C | 71% | 1018.9 hPa | - | - | - | - |
| 1777780052 | 8.33° C | 71% | 1018.8 hPa | - | - | - | - |
| 1777779451 | 8.33° C | 71% | 1018.8 hPa | - | - | - | - |
| 1777778852 | 8.33° C | 71% | 1018.6 hPa | - | - | - | - |
| 1777778252 | 8.33° C | 70% | 1018.6 hPa | - | - | - | - |
| 1777777652 | 8.33° C | 71% | 1018.7 hPa | - | - | - | - |
| 1777777051 | 8.33° C | 70% | 1018.6 hPa | - | - | - | - |
| 1777776452 | 8.33° C | 71% | 1018.5 hPa | - | - | - | - |
* Rain since midnight (hover to see other rain measurements)
** Current wind speed in m/s (hover to see current wind gust speed)